Location: Riverside Junction
(33.9853°N, 117.3612°W)
Time: 05:24:28
(UTC+00:00)

Daily predictions for brighter satellites

Satellite Brightness Start Highest point End
(mag) Time Altitude Azimuth Time Altitude Azimuth Time Altitude Azimuth
Cosmos 1943 3.2 01:09:08 10° NNW 01:14:46 74° ENE 01:20:23 10° SSE
IRS-1C 4.2 01:10:41 10° SSE 01:15:52 57° ENE 01:21:04 10° N
Tiangong -0.4 01:14:57 10° WNW 01:17:37 24° N 01:20:18 10° NE
Cosmos 1606 1.7 01:16:27 10° S 01:19:07 63° E 01:21:49 10° NNE
Cosmos 1340 Rocket 2.6 01:16:05 10° S 01:19:54 77° E 01:23:45 10° NNE
YAOGAN 1 4.1 01:21:55 10° ESE 01:24:16 15° ENE 01:26:38 10° NE
Delta 2 Rocket 3.3 01:20:47 10° WSW 01:24:45 65° SSE 01:28:33 10° E
Cosmos 921 Rocket 3.6 01:22:47 10° SSE 01:26:37 34° E 01:30:31 10° NE
Cosmos 1025 Rocket 3.4 01:27:11 10° N 01:31:18 41° E 01:35:21 10° SSE
Cosmos 2016 Rocket 4.1 01:25:40 10° S 01:31:42 59° E 01:37:52 10° NNE
Iridium 4 Rocket 3.8 01:26:40 10° S 01:32:22 85° W 01:37:42 10° N
SMAP 3.6 01:34:27 10° S 01:39:04 65° W 01:43:41 10° NNW
Cosmos 1302 Rocket 4.0 01:35:13 10° N 01:40:22 59° ENE 01:45:31 10° SSE
Cosmos 1378 Rocket 4.0 01:37:11 10° NNW 01:41:26 65° W 01:45:44 10° S
Cosmos 1782 Rocket 4.1 01:38:27 10° SSE 01:42:29 36° E 01:46:33 10° NNE
BREEZE-M DEB (TANK) 3.3 01:40:48 10° W 01:42:44 25° NNW 01:45:47 10° NE
CZ-2D R/B 3.4 01:41:29 10° S 01:44:37 58° W 01:47:45 10° NNW
Meteor 1-11 4.2 01:39:11 10° N 01:44:57 89° E 01:50:35 10° S
ARIANE 6 FM1 Upper Stage 4.5 01:42:44 10° WSW 01:46:13 27° NW 01:49:39 10° N
Cosmos 2061 Rocket 4.2 01:40:50 10° SSE 01:46:56 50° E 01:52:59 10° NNE
Helios 1A Rocket 2.3 01:48:44 10° NNE 01:52:06 66° E 01:55:27 10° S
SKYMED 2 3.5 01:49:10 10° NNE 01:53:32 84° ESE 01:57:52 10° S
CZ-2D R/B 3.6 01:49:51 10° SE 01:53:37 44° ENE 01:57:30 10° N
Landsat 7 4.2 01:49:30 10° S 01:54:06 65° W 01:58:44 10° NNW
Cosmos 1908 Rocket 4.0 01:54:03 10° SSW 01:58:22 64° W 02:02:45 10° N
Cosmos 1269 Rocket 4.4 01:54:48 10° S 01:59:42 42° ESE 02:04:17 12° NNE
Cosmos 1992 Rocket 4.2 01:55:05 10° N 02:00:05 46° ENE 02:05:02 10° SE
NOSS 3-4 (A) 4.4 01:55:39 10° NNW 02:02:14 39° NE 02:08:45 14° ESE
NOSS 3-4 (C) 4.4 01:55:44 10° NNW 02:02:19 39° NE 02:08:39 14° ESE
Cosmos 546 4.4 01:59:10 10° NW 02:02:51 85° SW 02:05:34 17° SE
Cosmos 1300 Rocket 3.4 02:00:32 10° S 02:04:54 78° E 02:09:19 10° N
COSMO-SKYMED 1 2.3 02:02:17 10° NNE 02:06:25 82° E 02:10:31 10° S
BREEZE-M DEB (TANK) 4.3 02:05:11 10° WNW 02:06:57 19° NNW 02:09:11 12° NNE
Cosmos 2221 Rocket 3.7 02:02:57 10° N 02:07:28 77° W 02:11:54 10° S
SL-19 R/B 4.1 02:07:36 10° SSE 02:12:55 57° ENE 02:18:02 10° N
ATLAS CENTAUR R/B 1.9 02:12:50 10° SW 02:16:09 44° WNW 02:18:28 18° N
IRAS Rocket 4.1 02:11:07 10° SSE 02:16:41 76° ENE 02:22:16 10° N
BREEZE-M DEB (TANK) 3.7 02:17:55 10° W 02:20:11 34° NNW 02:22:04 22° NNE
Cosmos 1943 Rocket 3.7 02:17:43 10° SSE 02:19:48 18° SE 02:19:48 18° SE
USA 281 3.7 02:29:53 34° ENE 02:30:39 36° ENE 02:36:30 10° N
SPOT 1/Viking Rocket 3.8 02:27:48 10° S 02:32:53 67° WSW 02:38:01 10° NNW
OAO 2 Rocket 4.4 02:33:26 10° SSW 02:37:51 29° SSE 02:37:56 29° SSE
Cosmos 2084 Rocket 3.2 02:37:35 10° SSW 02:41:32 78° SSE 02:41:32 78° SSE
OAO 3 Copernicus 4.5 02:38:00 10° SW 02:42:55 54° SSE 02:43:16 53° SE
Cosmos 1833 Rocket 3.8 02:38:38 10° N 02:41:50 28° NNE 02:41:50 28° NNE
Resurs 1-3 3.8 02:40:47 10° S 02:45:02 65° W 02:49:19 10° NNW
PSLV R/B 4.0 02:41:12 10° S 02:45:14 56° W 02:49:15 10° NNW
DMSP B5D1-3 4.4 02:42:14 12° N 02:47:02 85° WNW 02:52:08 10° SSW
Cosmos 1140 Rocket 3.8 02:49:12 10° SSW 02:54:21 64° WNW 02:57:05 27° N
Tiangong 0.8 02:52:32 10° NW 02:53:10 14° NW 02:53:10 14° NW
YAOGAN 1 3.9 02:55:48 10° SSW 02:59:45 38° W 03:03:44 10° NNW
H-2A R/B 3.4 02:57:43 10° WSW 02:59:28 17° SW 02:59:28 17° SW
Cosmos 1072 Rocket 4.3 03:00:28 10° S 03:06:16 73° SE 03:06:16 73° SE
Cosmos 2278 Rocket 3.7 03:17:56 10° SSW 03:20:18 26° SSW 03:20:18 26° SSW
Timation 2 Rocket 4.1 03:17:44 10° SSW 03:24:21 84° WSW 03:24:21 84° WSW
Cosmos 1943 Rocket 4.5 04:00:03 10° SW 04:01:23 17° SW 04:01:23 17° SW
Cosmos 2219 Rocket 4.2 11:39:27 17° NNE 11:39:27 17° NNE 11:40:43 10° NNE
COSMOS 2428 3.6 11:40:02 31° SSE 11:42:15 45° ESE 11:47:39 10° NE
USA 234 4.2 11:43:47 10° ESE 11:49:51 42° NE 11:52:40 28° N
Cosmos 2322 4.0 11:49:38 60° SE 11:50:17 65° ESE 11:55:54 10° NNE
CZ-3 R/B 3.7 11:39:27 20° SW 11:52:19 41° S 11:59:21 10° ESE
CZ-2C R/B 4.2 11:47:38 10° NNE 11:49:27 23° NNE 11:49:27 23° NNE
